Flag for Germany Weather past 2 weeks in Heilbronn, Baden-Württemberg, Germany

Now
53 °F

Overcast.


Feels Like: 49 °F
Forecast: 44 / 51 °F
Wind: 13 mph from West

Location: Oehringen

Current Time: Mar 29, 2015 at 11:40:27 PM

Latest Report: Mar 29, 2015 at 11:00 PM


Visibility: 44 mi

Pressure: 29.50 "Hg

Humidity: 74%

Dew point: 45 °F

Location of HeilbronnLocation

Historic Weather in Heilbronn — Graph

°F

Heilbronn temperature yesterday

Maximum temperature yesterday: 54 °F (at 3:00 PM)
Minimum temperature yesterday: 40 °F (at 6:00 AM)
Average temperature yesterday: 47 °F

Past Weeks' High & Low Weather Summary

 TemperatureHumidityPressure
High67 °F (Mar 17, 3:00 PM)97% (Mar 28, 10:00 PM)30.30 "Hg (Mar 28, 10:00 PM)
Low30 °F (Mar 24, 6:00 AM)30% (Mar 17, 4:00 PM)29.50 "Hg (Mar 29, 10:00 PM)
Average46 °F68%30.06 "Hg
* Reported Mar 14 9:00 PM — Mar 29 10:00 PM, Heilbronn, Weather by CustomWeather, © 2015

Note: Actual official high and low records may vary slightly from our data, if they occured in-between our weather recording intervals... More about our weather records

Advertising

Heilbronn weather history for previous 24 hours

 ConditionsComfort  
Time TempWeatherWind HumidityBarometerVisibility
10:00 PM
Sun, Mar 29
52 °FLight freezing rain. Overcast.10 mph81%29.50 "Hg31 mi
9:00 PM52 °FLight rain. Overcast.12 mph79%29.55 "Hg7 mi
8:00 PM51 °FLight rain. Overcast.8 mph81%29.58 "Hg12 mi
7:00 PM52 °FLight rain. Overcast.8 mph77%29.59 "Hg6 mi
6:00 PM53 °FOvercast.10 mph73%29.62 "Hg43 mi
5:00 PM52 °FOvercast.9 mph72%29.65 "Hg43 mi
4:00 PM50 °FLight rain. Overcast.9 mph80%29.70 "Hg13 mi
3:00 PM50 °FLight rain. Overcast.8 mph84%29.74 "Hg11 mi
2:00 PM49 °FLight rain. Overcast.9 mph87%29.77 "Hg5 mi
1:00 PM50 °FLight rain. Overcast.8 mph79%29.78 "Hg17 mi
12:00 PM51 °FLight rain. Overcast.9 mph82%29.80 "Hg17 mi
11:00 AM51 °FLight rain. Overcast.9 mph81%29.82 "Hg22 mi
10:00 AM51 °FOvercast.8 mph81%29.83 "Hg43 mi
9:00 AM49 °FOvercast.5 mph91%29.85 "Hg40 mi
8:00 AM51 °FOvercast.8 mph80%29.87 "Hg40 mi
7:00 AM51 °FOvercast.6 mph82%29.87 "Hg43 mi
6:00 AM50 °FDrizzle. Overcast.7 mph83%29.88 "Hg7 mi
5:00 AM49 °FOvercast.6 mph89%29.90 "Hg22 mi
4:00 AM47 °FLight rain. Low clouds.5 mph94%29.94 "Hg2 mi
3:00 AM50 °FLight freezing rain. Overcast.6 mph80%29.96 "Hg6 mi
1:00 AM49 °FOvercast.3 mph83%29.97 "Hg22 mi
12:00 AM46 °FOvercast.1 mph91%29.99 "Hg6 mi
11:00 PM
Sat, Mar 28
45 °FOvercast.1 mph94%30.02 "Hg3 mi
Weather by CustomWeather, © 2015

See weather overviewHow to use our weather pages